Year,Month,Day,Hour,Minute,Value (Times are PST for temperature in C)
2004,04,05,00,00,10.30
2004,04,05,00,01,10.30
2004,04,05,00,02,10.30
2004,04,05,00,03,10.40
2004,04,05,00,04,10.40
2004,04,05,00,05,10.30
2004,04,05,00,06,10.30
2004,04,05,00,07,10.30
2004,04,05,00,08,10.30
2004,04,05,00,09,10.40
2004,04,05,00,10,10.40
2004,04,05,00,11,10.30
2004,04,05,00,12,10.30
2004,04,05,00,13,10.30
2004,04,05,00,14,10.30
2004,04,05,00,15,10.20
2004,04,05,00,16,10.20
2004,04,05,00,17,10.20
2004,04,05,00,18,10.20
2004,04,05,00,19,10.10
2004,04,05,00,20,10.20
2004,04,05,00,21,10.20
2004,04,05,00,22,10.20
2004,04,05,00,23,10.20
2004,04,05,00,24,10.20
2004,04,05,00,25,10.30
2004,04,05,00,26,10.30
2004,04,05,00,27,10.30
2004,04,05,00,28,10.30
2004,04,05,00,29,10.30
2004,04,05,00,30,10.30
2004,04,05,00,31,10.30
2004,04,05,00,32,10.20
2004,04,05,00,33,10.20
2004,04,05,00,34,10.20
2004,04,05,00,35,10.20
2004,04,05,00,36,10.10
2004,04,05,00,37,10.10
2004,04,05,00,38,10.10
2004,04,05,00,39,10.10
2004,04,05,00,40,10.10
2004,04,05,00,41,10.10
2004,04,05,00,42,10.10
2004,04,05,00,43,10.10
2004,04,05,00,44,10.00
2004,04,05,00,45,9.90
2004,04,05,00,46,9.90
2004,04,05,00,47,9.90
2004,04,05,00,48,9.90
2004,04,05,00,49,9.90
2004,04,05,00,50,9.90
2004,04,05,00,51,9.90
2004,04,05,00,52,9.90
2004,04,05,00,53,9.90
2004,04,05,00,54,9.90
2004,04,05,00,55,9.90
2004,04,05,00,56,9.80
2004,04,05,00,57,9.80
2004,04,05,00,58,9.80
2004,04,05,00,59,9.80
2004,04,05,01,00,9.80
2004,04,05,01,01,9.80
2004,04,05,01,02,9.70
2004,04,05,01,03,9.80
2004,04,05,01,04,9.70
2004,04,05,01,05,9.70
2004,04,05,01,06,9.70
2004,04,05,01,07,9.70
2004,04,05,01,08,9.70
2004,04,05,01,09,9.60
2004,04,05,01,10,9.70
2004,04,05,01,11,9.60
2004,04,05,01,12,9.70
2004,04,05,01,13,9.60
2004,04,05,01,14,9.60
2004,04,05,01,15,9.50
2004,04,05,01,16,9.40
2004,04,05,01,17,9.30
2004,04,05,01,18,9.20
2004,04,05,01,19,9.10
2004,04,05,01,20,9.10
2004,04,05,01,21,9.00
2004,04,05,01,22,9.10
2004,04,05,01,23,9.00
2004,04,05,01,24,9.10
2004,04,05,01,25,9.20
2004,04,05,01,26,9.20
2004,04,05,01,27,9.20
2004,04,05,01,28,9.30
2004,04,05,01,29,9.30
2004,04,05,01,30,9.30
2004,04,05,01,31,9.30
2004,04,05,01,32,9.30
2004,04,05,01,33,9.20
2004,04,05,01,34,9.20
2004,04,05,01,35,9.20
2004,04,05,01,36,9.20
2004,04,05,01,37,9.10
2004,04,05,01,38,9.10
2004,04,05,01,39,9.20
2004,04,05,01,40,9.10
2004,04,05,01,41,9.10
2004,04,05,01,42,9.10
2004,04,05,01,43,9.10
2004,04,05,01,44,9.20
2004,04,05,01,45,9.20
2004,04,05,01,46,9.20
2004,04,05,01,47,9.10
2004,04,05,01,48,9.10
2004,04,05,01,49,9.10
2004,04,05,01,50,9.00
2004,04,05,01,51,9.00
2004,04,05,01,52,8.90
2004,04,05,01,53,8.80
2004,04,05,01,54,8.80
2004,04,05,01,55,8.70
2004,04,05,01,56,8.70
2004,04,05,01,57,8.70
2004,04,05,01,58,8.60
2004,04,05,01,59,8.50
2004,04,05,02,00,8.40
2004,04,05,02,01,8.30
2004,04,05,02,02,8.30
2004,04,05,02,03,8.30
2004,04,05,02,04,8.20
2004,04,05,02,05,8.30
2004,04,05,02,06,8.20
2004,04,05,02,07,8.40
2004,04,05,02,08,8.40
2004,04,05,02,09,8.40
2004,04,05,02,10,8.50
2004,04,05,02,11,8.50
2004,04,05,02,12,8.50
2004,04,05,02,13,8.50
2004,04,05,02,14,8.50
2004,04,05,02,15,8.50
2004,04,05,02,16,8.60
2004,04,05,02,17,8.50
2004,04,05,02,18,8.60
2004,04,05,02,19,8.60
2004,04,05,02,20,8.50
2004,04,05,02,21,8.50
2004,04,05,02,22,8.40
2004,04,05,02,23,8.40
2004,04,05,02,24,8.30
2004,04,05,02,25,8.20
2004,04,05,02,26,8.10
2004,04,05,02,27,8.00
2004,04,05,02,28,7.80
2004,04,05,02,29,7.80
2004,04,05,02,30,7.80
2004,04,05,02,31,7.70
2004,04,05,02,32,7.70
2004,04,05,02,33,7.80
2004,04,05,02,34,7.80
2004,04,05,02,35,7.80
2004,04,05,02,36,7.90
2004,04,05,02,37,7.90
2004,04,05,02,38,7.90
2004,04,05,02,39,7.90
2004,04,05,02,40,7.90
2004,04,05,02,41,7.90
2004,04,05,02,42,7.90
2004,04,05,02,43,7.90
2004,04,05,02,44,7.80
2004,04,05,02,45,7.90
2004,04,05,02,46,7.80
2004,04,05,02,47,7.90
2004,04,05,02,48,7.90
2004,04,05,02,49,7.90
2004,04,05,02,50,7.90
2004,04,05,02,51,8.00
2004,04,05,02,52,8.00
2004,04,05,02,53,8.00
2004,04,05,02,54,8.00
2004,04,05,02,55,7.90
2004,04,05,02,56,7.90
2004,04,05,02,57,7.90
2004,04,05,02,58,7.90
2004,04,05,02,59,8.00
2004,04,05,03,00,8.10
2004,04,05,03,01,8.10
2004,04,05,03,02,8.10
2004,04,05,03,03,8.10
2004,04,05,03,04,8.10
2004,04,05,03,05,7.90
2004,04,05,03,06,7.80
2004,04,05,03,07,7.70
2004,04,05,03,08,7.70
2004,04,05,03,09,7.80
2004,04,05,03,10,7.80
2004,04,05,03,11,7.80
2004,04,05,03,12,7.80
2004,04,05,03,13,7.80
2004,04,05,03,14,7.80
2004,04,05,03,15,7.80
2004,04,05,03,16,7.80
2004,04,05,03,17,7.80
2004,04,05,03,18,7.80
2004,04,05,03,19,7.90
2004,04,05,03,20,7.90
2004,04,05,03,21,7.90
2004,04,05,03,22,7.90
2004,04,05,03,23,8.00
2004,04,05,03,24,8.00
2004,04,05,03,25,8.00
2004,04,05,03,26,8.00
2004,04,05,03,27,8.00
2004,04,05,03,28,8.00
2004,04,05,03,29,8.00
2004,04,05,03,30,8.00
2004,04,05,03,31,8.00
2004,04,05,03,32,8.00
2004,04,05,03,33,7.90
2004,04,05,03,34,7.80
2004,04,05,03,35,7.80
2004,04,05,03,36,7.70
2004,04,05,03,37,7.60
2004,04,05,03,38,7.60
2004,04,05,03,39,7.60
2004,04,05,03,40,7.60
2004,04,05,03,41,7.60
2004,04,05,03,42,7.60
2004,04,05,03,43,7.70
2004,04,05,03,44,7.70
2004,04,05,03,45,7.70
2004,04,05,03,46,7.80
2004,04,05,03,47,7.70
2004,04,05,03,48,7.70
2004,04,05,03,49,7.80
2004,04,05,03,50,7.70
2004,04,05,03,51,7.70
2004,04,05,03,52,7.60
2004,04,05,03,53,7.50
2004,04,05,03,54,7.50
2004,04,05,03,55,7.50
2004,04,05,03,56,7.50
2004,04,05,03,57,7.60
2004,04,05,03,58,7.60
2004,04,05,03,59,7.60
2004,04,05,04,00,7.60
2004,04,05,04,01,7.60
2004,04,05,04,02,7.60
2004,04,05,04,03,7.60
2004,04,05,04,04,7.60
2004,04,05,04,05,7.50
2004,04,05,04,06,7.50
2004,04,05,04,07,7.50
2004,04,05,04,08,7.50
2004,04,05,04,09,7.40
2004,04,05,04,10,7.50
2004,04,05,04,11,7.40
2004,04,05,04,12,7.40
2004,04,05,04,13,7.30
2004,04,05,04,14,7.30
2004,04,05,04,15,7.30
2004,04,05,04,16,7.20
2004,04,05,04,17,7.10
2004,04,05,04,18,7.10
2004,04,05,04,19,7.00
2004,04,05,04,20,7.00
2004,04,05,04,21,7.10
2004,04,05,04,22,7.20
2004,04,05,04,23,7.20
2004,04,05,04,24,7.30
2004,04,05,04,25,7.30
2004,04,05,04,26,7.20
2004,04,05,04,27,7.20
2004,04,05,04,28,7.20
2004,04,05,04,29,7.00
2004,04,05,04,30,7.00
2004,04,05,04,31,6.90
2004,04,05,04,32,6.80
2004,04,05,04,33,6.70
2004,04,05,04,34,6.60
2004,04,05,04,35,6.60
2004,04,05,04,36,6.60
2004,04,05,04,37,6.60
2004,04,05,04,38,6.60
2004,04,05,04,39,6.60
2004,04,05,04,40,6.60
2004,04,05,04,41,6.60
2004,04,05,04,42,6.60
2004,04,05,04,43,6.60
2004,04,05,04,44,6.50
2004,04,05,04,45,6.40
2004,04,05,04,46,6.40
2004,04,05,04,47,6.40
2004,04,05,04,48,6.50
2004,04,05,04,49,6.60
2004,04,05,04,50,6.70
2004,04,05,04,51,6.70
2004,04,05,04,52,6.80
2004,04,05,04,53,6.80
2004,04,05,04,54,6.80
2004,04,05,04,55,6.80
2004,04,05,04,56,6.90
2004,04,05,04,57,6.80
2004,04,05,04,58,6.90
2004,04,05,04,59,7.00
2004,04,05,05,00,7.00
2004,04,05,05,01,7.10
2004,04,05,05,02,7.20
2004,04,05,05,03,7.20
2004,04,05,05,04,7.30
2004,04,05,05,05,7.30
2004,04,05,05,06,7.20
2004,04,05,05,07,7.20
2004,04,05,05,08,7.20
2004,04,05,05,09,7.20
2004,04,05,05,10,7.20
2004,04,05,05,11,7.40
2004,04,05,05,12,7.30
2004,04,05,05,13,7.50
2004,04,05,05,14,7.50
2004,04,05,05,15,7.50
2004,04,05,05,16,7.40
2004,04,05,05,17,7.30
2004,04,05,05,18,7.30
2004,04,05,05,19,7.40
2004,04,05,05,20,7.40
2004,04,05,05,21,7.30
2004,04,05,05,22,7.30
2004,04,05,05,23,7.20
2004,04,05,05,24,7.10
2004,04,05,05,25,7.00
2004,04,05,05,26,7.10
2004,04,05,05,27,7.20
2004,04,05,05,28,7.10
2004,04,05,05,29,7.10
2004,04,05,05,30,7.10
2004,04,05,05,31,7.10
2004,04,05,05,32,7.20
2004,04,05,05,33,7.20
2004,04,05,05,34,7.30
2004,04,05,05,35,7.30
2004,04,05,05,36,7.30
2004,04,05,05,37,7.30
2004,04,05,05,38,7.30
2004,04,05,05,39,7.30
2004,04,05,05,40,7.30
2004,04,05,05,41,7.30
2004,04,05,05,42,7.50
2004,04,05,05,43,7.60
2004,04,05,05,44,7.60
2004,04,05,05,45,7.70
2004,04,05,05,46,7.70
2004,04,05,05,47,7.80
2004,04,05,05,48,7.80
2004,04,05,05,49,7.80
2004,04,05,05,50,7.70
2004,04,05,05,51,7.60
2004,04,05,05,52,7.50
2004,04,05,05,53,7.60
2004,04,05,05,54,7.50
2004,04,05,05,55,7.50
2004,04,05,05,56,7.50
2004,04,05,05,57,7.40
2004,04,05,05,58,7.40
2004,04,05,05,59,7.30
2004,04,05,06,00,7.30
2004,04,05,06,01,7.30
2004,04,05,06,02,7.20
2004,04,05,06,03,7.20
2004,04,05,06,04,7.10
2004,04,05,06,05,7.00
2004,04,05,06,06,7.00
2004,04,05,06,07,7.00
2004,04,05,06,08,7.10
2004,04,05,06,09,7.20
2004,04,05,06,10,7.10
2004,04,05,06,11,7.10
2004,04,05,06,12,7.00
2004,04,05,06,13,7.00
2004,04,05,06,14,7.00
2004,04,05,06,15,7.00
2004,04,05,06,16,7.00
2004,04,05,06,17,7.10
2004,04,05,06,18,7.10
2004,04,05,06,19,7.10
2004,04,05,06,20,7.10
2004,04,05,06,21,7.20
2004,04,05,06,22,7.30
2004,04,05,06,23,7.30
2004,04,05,06,24,7.30
2004,04,05,06,25,7.30
2004,04,05,06,26,7.30
2004,04,05,06,27,7.10
2004,04,05,06,28,7.00
2004,04,05,06,29,7.00
2004,04,05,06,30,7.10
2004,04,05,06,31,7.10
2004,04,05,06,32,7.10
2004,04,05,06,33,7.10
2004,04,05,06,34,7.20
2004,04,05,06,35,7.10
2004,04,05,06,36,7.10
2004,04,05,06,37,7.10
2004,04,05,06,38,7.20
2004,04,05,06,39,7.20
2004,04,05,06,40,7.30
2004,04,05,06,41,7.30
2004,04,05,06,42,7.30
2004,04,05,06,43,7.30
2004,04,05,06,44,7.30
2004,04,05,06,45,7.20
2004,04,05,06,46,7.20
2004,04,05,06,47,7.20
2004,04,05,06,48,7.20
2004,04,05,06,49,7.20
2004,04,05,06,50,7.10
2004,04,05,06,51,7.10
2004,04,05,06,52,7.10
2004,04,05,06,53,7.10
2004,04,05,06,54,7.10
2004,04,05,06,55,7.00
2004,04,05,06,56,7.00
2004,04,05,06,57,7.10
2004,04,05,06,58,7.20
2004,04,05,06,59,7.20
2004,04,05,07,00,7.20
2004,04,05,07,01,7.20
2004,04,05,07,02,7.20
2004,04,05,07,03,7.10
2004,04,05,07,04,7.10
2004,04,05,07,05,7.10
2004,04,05,07,06,7.20
2004,04,05,07,07,7.20
2004,04,05,07,08,7.20
2004,04,05,07,09,7.30
2004,04,05,07,10,7.30
2004,04,05,07,11,7.40
2004,04,05,07,12,7.40
2004,04,05,07,13,7.40
2004,04,05,07,14,7.40
2004,04,05,07,15,7.50
2004,04,05,07,16,7.60
2004,04,05,07,17,7.60
2004,04,05,07,18,7.70
2004,04,05,07,19,7.80
2004,04,05,07,20,7.80
2004,04,05,07,21,7.90
2004,04,05,07,22,7.90
2004,04,05,07,23,7.90
2004,04,05,07,24,7.80
2004,04,05,07,25,7.80
2004,04,05,07,26,7.80
2004,04,05,07,27,7.80
2004,04,05,07,28,7.80
2004,04,05,07,29,7.80
2004,04,05,07,30,7.80
2004,04,05,07,31,7.80
2004,04,05,07,32,7.80
2004,04,05,07,33,7.80
2004,04,05,07,34,7.80
2004,04,05,07,35,8.00
2004,04,05,07,36,7.90
2004,04,05,07,37,7.90
2004,04,05,07,38,7.80
2004,04,05,07,39,7.90
2004,04,05,07,40,7.90
2004,04,05,07,41,8.10
2004,04,05,07,42,8.20
2004,04,05,07,43,8.30
2004,04,05,07,44,8.30
2004,04,05,07,45,8.40
2004,04,05,07,46,8.40
2004,04,05,07,47,8.40
2004,04,05,07,48,8.40
2004,04,05,07,49,8.40
2004,04,05,07,50,8.50
2004,04,05,07,51,8.60
2004,04,05,07,52,8.70
2004,04,05,07,53,8.70
2004,04,05,07,54,8.80
2004,04,05,07,55,8.80
2004,04,05,07,56,8.80
2004,04,05,07,57,8.90
2004,04,05,07,58,8.90
2004,04,05,07,59,9.10
2004,04,05,08,00,9.10
2004,04,05,08,01,9.20
2004,04,05,08,02,9.20
2004,04,05,08,03,9.30
2004,04,05,08,04,9.30
2004,04,05,08,05,9.40
2004,04,05,08,06,9.40
2004,04,05,08,07,9.50
2004,04,05,08,08,9.50
2004,04,05,08,09,9.50
2004,04,05,08,10,9.60
2004,04,05,08,11,9.60
2004,04,05,08,12,9.60
2004,04,05,08,13,9.60
2004,04,05,08,14,9.70
2004,04,05,08,15,9.70
2004,04,05,08,16,9.70
2004,04,05,08,17,9.80
2004,04,05,08,18,9.90
2004,04,05,08,19,9.90
2004,04,05,08,20,9.90
2004,04,05,08,21,9.90
2004,04,05,08,22,9.90
2004,04,05,08,23,10.00
2004,04,05,08,24,10.00
2004,04,05,08,25,9.90
2004,04,05,08,26,9.90
2004,04,05,08,27,9.90
2004,04,05,08,28,10.00
2004,04,05,08,29,10.10
2004,04,05,08,30,10.10
2004,04,05,08,31,10.10
2004,04,05,08,32,10.10
2004,04,05,08,33,10.10
2004,04,05,08,34,10.10
2004,04,05,08,35,10.10
2004,04,05,08,36,10.10
2004,04,05,08,37,10.00
2004,04,05,08,38,9.90
2004,04,05,08,39,9.80
2004,04,05,08,40,9.80
2004,04,05,08,41,9.80
2004,04,05,08,42,9.80
2004,04,05,08,43,9.80
2004,04,05,08,44,9.90
2004,04,05,08,45,9.90
2004,04,05,08,46,10.10
2004,04,05,08,47,10.10
2004,04,05,08,48,10.10
2004,04,05,08,49,10.10
2004,04,05,08,50,10.10
2004,04,05,08,51,10.10
2004,04,05,08,52,10.10
2004,04,05,08,53,10.10
2004,04,05,08,54,10.20
2004,04,05,08,55,10.30
2004,04,05,08,56,10.40
2004,04,05,08,57,10.40
2004,04,05,08,58,10.40
2004,04,05,08,59,10.50
2004,04,05,09,00,10.60
2004,04,05,09,01,10.60
2004,04,05,09,02,10.80
2004,04,05,09,03,11.00
2004,04,05,09,04,11.10
2004,04,05,09,05,11.10
2004,04,05,09,06,11.10
2004,04,05,09,07,11.20
2004,04,05,09,08,11.20
2004,04,05,09,09,11.40
2004,04,05,09,10,11.40
2004,04,05,09,11,11.50
2004,04,05,09,12,11.60
2004,04,05,09,13,11.70
2004,04,05,09,14,11.70
2004,04,05,09,15,11.70
2004,04,05,09,16,11.70
2004,04,05,09,17,11.70
2004,04,05,09,18,11.70
2004,04,05,09,19,11.80
2004,04,05,09,20,11.70
2004,04,05,09,21,11.50
2004,04,05,09,22,11.40
2004,04,05,09,23,11.40
2004,04,05,09,24,11.30
2004,04,05,09,25,11.30
2004,04,05,09,26,11.30
2004,04,05,09,27,11.40
2004,04,05,09,28,11.40
2004,04,05,09,29,11.40
2004,04,05,09,30,11.50
2004,04,05,09,31,11.60
2004,04,05,09,32,11.70
2004,04,05,09,33,11.80
2004,04,05,09,34,11.90
2004,04,05,09,35,11.90
2004,04,05,09,36,11.90
2004,04,05,09,37,11.80
2004,04,05,09,38,11.60
2004,04,05,09,39,11.50
2004,04,05,09,40,11.40
2004,04,05,09,41,11.20
2004,04,05,09,42,11.10
2004,04,05,09,43,10.90
2004,04,05,09,44,10.80
2004,04,05,09,45,10.80
2004,04,05,09,46,10.70
2004,04,05,09,47,10.60
2004,04,05,09,48,10.60
2004,04,05,09,49,10.60
2004,04,05,09,50,10.60
2004,04,05,09,51,10.60
2004,04,05,09,52,10.80
2004,04,05,09,53,10.90
2004,04,05,09,54,10.80
2004,04,05,09,55,10.80
2004,04,05,09,56,10.70
2004,04,05,09,57,10.70
2004,04,05,09,58,10.60
2004,04,05,09,59,10.60
2004,04,05,10,00,10.60
2004,04,05,10,01,10.60
2004,04,05,10,02,10.80
2004,04,05,10,03,10.70
2004,04,05,10,04,10.70
2004,04,05,10,05,10.60
2004,04,05,10,06,10.60
2004,04,05,10,07,10.60
2004,04,05,10,08,10.60
2004,04,05,10,09,10.60
2004,04,05,10,10,10.60
2004,04,05,10,11,10.60
2004,04,05,10,12,10.60
2004,04,05,10,13,10.50
2004,04,05,10,14,10.40
2004,04,05,10,15,10.40
2004,04,05,10,16,10.60
2004,04,05,10,17,10.80
2004,04,05,10,18,11.10
2004,04,05,10,19,11.10
2004,04,05,10,20,11.10
2004,04,05,10,21,11.10
2004,04,05,10,22,11.10
2004,04,05,10,23,11.10
2004,04,05,10,24,11.10
2004,04,05,10,25,10.90
2004,04,05,10,26,10.90
2004,04,05,10,27,11.00
2004,04,05,10,28,10.90
2004,04,05,10,29,11.00
2004,04,05,10,30,11.10
2004,04,05,10,31,11.20
2004,04,05,10,32,11.30
2004,04,05,10,33,11.20
2004,04,05,10,34,11.10
2004,04,05,10,35,11.00
2004,04,05,10,36,10.90
2004,04,05,10,37,10.90
2004,04,05,10,38,10.90
2004,04,05,10,39,10.90
2004,04,05,10,40,10.80
2004,04,05,10,41,10.80
2004,04,05,10,42,10.80
2004,04,05,10,43,10.80
2004,04,05,10,44,11.00
2004,04,05,10,45,11.10
2004,04,05,10,46,11.30
2004,04,05,10,47,11.40
2004,04,05,10,48,11.40
2004,04,05,10,49,11.40
2004,04,05,10,50,11.30
2004,04,05,10,51,11.10
2004,04,05,10,52,11.10
2004,04,05,10,53,11.10
2004,04,05,10,54,10.90
2004,04,05,10,55,10.80
2004,04,05,10,56,10.70
2004,04,05,10,57,10.60
2004,04,05,10,58,10.80
2004,04,05,10,59,10.80
2004,04,05,11,00,10.70
2004,04,05,11,01,10.70
2004,04,05,11,02,10.80
2004,04,05,11,03,10.90
2004,04,05,11,04,11.00
2004,04,05,11,05,11.00
2004,04,05,11,06,11.00
2004,04,05,11,07,10.90
2004,04,05,11,08,10.90
2004,04,05,11,09,10.90
2004,04,05,11,10,10.90
2004,04,05,11,11,10.90
2004,04,05,11,12,10.80
2004,04,05,11,13,10.70
2004,04,05,11,14,10.80
2004,04,05,11,15,10.80
2004,04,05,11,16,10.90
2004,04,05,11,17,11.10
2004,04,05,11,18,11.40
2004,04,05,11,19,11.50
2004,04,05,11,20,11.30
2004,04,05,11,21,11.10
2004,04,05,11,22,11.10
2004,04,05,11,23,11.00
2004,04,05,11,24,10.90
2004,04,05,11,25,10.90
2004,04,05,11,26,10.90
2004,04,05,11,27,10.90
2004,04,05,11,28,11.00
2004,04,05,11,29,11.10
2004,04,05,11,30,11.00
2004,04,05,11,31,10.90
2004,04,05,11,32,10.90
2004,04,05,11,33,10.90
2004,04,05,11,34,10.90
2004,04,05,11,35,10.90
2004,04,05,11,36,11.00
2004,04,05,11,37,10.90
2004,04,05,11,38,10.90
2004,04,05,11,39,10.90
2004,04,05,11,40,10.90
2004,04,05,11,41,10.90
2004,04,05,11,42,10.90
2004,04,05,11,43,11.00
2004,04,05,11,44,11.10
2004,04,05,11,45,11.10
2004,04,05,11,46,11.10
2004,04,05,11,47,11.10
2004,04,05,11,48,11.00
2004,04,05,11,49,11.00
2004,04,05,11,50,11.00
2004,04,05,11,51,10.90
2004,04,05,11,52,10.80
2004,04,05,11,53,10.70
2004,04,05,11,54,10.60
2004,04,05,11,55,10.60
2004,04,05,11,56,10.60
2004,04,05,11,57,10.70
2004,04,05,11,58,10.80
2004,04,05,11,59,10.90
2004,04,05,12,00,10.80
2004,04,05,12,01,10.70
2004,04,05,12,02,10.60
2004,04,05,12,03,10.60
2004,04,05,12,04,10.50
2004,04,05,12,05,10.60
2004,04,05,12,06,10.60
2004,04,05,12,07,10.70
2004,04,05,12,08,10.80
2004,04,05,12,09,10.90
2004,04,05,12,10,11.00
2004,04,05,12,11,11.10
2004,04,05,12,12,11.00
2004,04,05,12,13,11.10
2004,04,05,12,14,11.10
2004,04,05,12,15,11.10
2004,04,05,12,16,11.20
2004,04,05,12,17,11.30
2004,04,05,12,18,11.30
2004,04,05,12,19,11.30
2004,04,05,12,20,11.30
2004,04,05,12,21,11.30
2004,04,05,12,22,11.20
2004,04,05,12,23,11.20
2004,04,05,12,24,11.20
2004,04,05,12,25,11.30
2004,04,05,12,26,11.30
2004,04,05,12,27,11.50
2004,04,05,12,28,11.50
2004,04,05,12,29,11.50
2004,04,05,12,30,11.50
2004,04,05,12,31,11.60
2004,04,05,12,32,11.50
2004,04,05,12,33,11.60
2004,04,05,12,34,11.70
2004,04,05,12,35,11.80
2004,04,05,12,36,11.80
2004,04,05,12,37,11.60
2004,04,05,12,38,11.60
2004,04,05,12,39,11.60
2004,04,05,12,40,11.60
2004,04,05,12,41,11.80
2004,04,05,12,42,11.70
2004,04,05,12,43,11.80
2004,04,05,12,44,11.80
2004,04,05,12,45,11.80
2004,04,05,12,46,11.80
2004,04,05,12,47,11.90
2004,04,05,12,48,11.80
2004,04,05,12,49,11.80
2004,04,05,12,50,11.80
2004,04,05,12,51,11.70
2004,04,05,12,52,11.70
2004,04,05,12,53,11.70
2004,04,05,12,54,11.60
2004,04,05,12,55,11.60
2004,04,05,12,56,11.60
2004,04,05,12,57,11.60
2004,04,05,12,58,11.60
2004,04,05,12,59,11.60
2004,04,05,13,00,11.50
2004,04,05,13,01,11.40
2004,04,05,13,02,11.40
2004,04,05,13,03,11.60
2004,04,05,13,04,11.80
2004,04,05,13,05,11.90
2004,04,05,13,06,11.80
2004,04,05,13,07,11.80
2004,04,05,13,08,11.80
2004,04,05,13,09,11.80
2004,04,05,13,10,11.80
2004,04,05,13,11,11.80
2004,04,05,13,12,11.70
2004,04,05,13,13,11.60
2004,04,05,13,14,11.50
2004,04,05,13,15,11.40
2004,04,05,13,16,11.30
2004,04,05,13,17,11.50
2004,04,05,13,18,11.60
2004,04,05,13,19,11.60
2004,04,05,13,20,11.50
2004,04,05,13,21,11.60
2004,04,05,13,22,11.70
2004,04,05,13,23,11.80
2004,04,05,13,24,11.80
2004,04,05,13,25,12.00
2004,04,05,13,26,12.00
2004,04,05,13,27,11.90
2004,04,05,13,28,11.80
2004,04,05,13,29,11.90
2004,04,05,13,30,11.90
2004,04,05,13,31,11.80
2004,04,05,13,32,11.80
2004,04,05,13,33,11.70
2004,04,05,13,34,11.60
2004,04,05,13,35,11.60
2004,04,05,13,36,11.60
2004,04,05,13,37,11.60
2004,04,05,13,38,11.70
2004,04,05,13,39,11.80
2004,04,05,13,40,11.70
2004,04,05,13,41,11.60
2004,04,05,13,42,11.60
2004,04,05,13,43,11.60
2004,04,05,13,44,11.50
2004,04,05,13,45,11.40
2004,04,05,13,46,11.50
2004,04,05,13,47,11.40
2004,04,05,13,48,11.50
2004,04,05,13,49,11.70
2004,04,05,13,50,12.00
2004,04,05,13,51,12.10
2004,04,05,13,52,12.10
2004,04,05,13,53,12.20
2004,04,05,13,54,12.40
2004,04,05,13,55,12.30
2004,04,05,13,56,12.10
2004,04,05,13,57,12.00
2004,04,05,13,58,11.90
2004,04,05,13,59,11.90
2004,04,05,14,00,11.90
2004,04,05,14,01,11.80
2004,04,05,14,02,11.80
2004,04,05,14,03,11.80
2004,04,05,14,04,11.90
2004,04,05,14,05,11.80
2004,04,05,14,06,11.70
2004,04,05,14,07,11.80
2004,04,05,14,08,11.80
2004,04,05,14,09,11.80
2004,04,05,14,10,11.90
2004,04,05,14,11,12.10
2004,04,05,14,12,12.20
2004,04,05,14,13,12.40
2004,04,05,14,14,12.60
2004,04,05,14,15,12.80
2004,04,05,14,16,12.80
2004,04,05,14,17,12.70
2004,04,05,14,18,12.40
2004,04,05,14,19,12.30
2004,04,05,14,20,12.40
2004,04,05,14,21,12.50
2004,04,05,14,22,12.60
2004,04,05,14,23,12.70
2004,04,05,14,24,12.80
2004,04,05,14,25,12.90
2004,04,05,14,26,12.70
2004,04,05,14,27,12.50
2004,04,05,14,28,12.30
2004,04,05,14,29,12.10
2004,04,05,14,30,11.90
2004,04,05,14,31,11.90
2004,04,05,14,32,11.90
2004,04,05,14,33,12.00
2004,04,05,14,34,12.00
2004,04,05,14,35,12.00
2004,04,05,14,36,12.10
2004,04,05,14,37,12.20
2004,04,05,14,38,12.30
2004,04,05,14,39,12.40
2004,04,05,14,40,12.30
2004,04,05,14,41,12.30
2004,04,05,14,42,12.20
2004,04,05,14,43,12.30
2004,04,05,14,44,12.40
2004,04,05,14,45,12.50
2004,04,05,14,46,12.30
2004,04,05,14,47,12.10
2004,04,05,14,48,12.10
2004,04,05,14,49,12.10
2004,04,05,14,50,12.30
2004,04,05,14,51,12.40
2004,04,05,14,52,12.60
2004,04,05,14,53,12.60
2004,04,05,14,54,12.40
2004,04,05,14,55,12.20
2004,04,05,14,56,12.10
2004,04,05,14,57,12.00
2004,04,05,14,58,12.00
2004,04,05,14,59,12.30
2004,04,05,15,00,12.40
2004,04,05,15,01,12.30
2004,04,05,15,02,12.20
2004,04,05,15,03,12.40
2004,04,05,15,04,12.50
2004,04,05,15,05,12.60
2004,04,05,15,06,12.60
2004,04,05,15,07,12.80
2004,04,05,15,08,12.80
2004,04,05,15,09,12.80
2004,04,05,15,10,12.90
2004,04,05,15,11,13.00
2004,04,05,15,12,12.90
2004,04,05,15,13,13.00
2004,04,05,15,14,13.00
2004,04,05,15,15,13.00
2004,04,05,15,16,13.10
2004,04,05,15,17,13.20
2004,04,05,15,18,13.10
2004,04,05,15,19,13.00
2004,04,05,15,20,12.70
2004,04,05,15,21,12.60
2004,04,05,15,22,12.60
2004,04,05,15,23,12.50
2004,04,05,15,24,12.60
2004,04,05,15,25,12.80
2004,04,05,15,26,12.80
2004,04,05,15,27,13.10
2004,04,05,15,28,13.20
2004,04,05,15,29,13.20
2004,04,05,15,30,13.20
2004,04,05,15,31,13.40
2004,04,05,15,32,13.50
2004,04,05,15,33,13.40
2004,04,05,15,34,13.60
2004,04,05,15,35,13.70
2004,04,05,15,36,13.60
2004,04,05,15,37,13.50
2004,04,05,15,38,13.50
2004,04,05,15,39,13.50
2004,04,05,15,40,13.40
2004,04,05,15,41,13.30
2004,04,05,15,42,13.30
2004,04,05,15,43,13.30
2004,04,05,15,44,13.20
2004,04,05,15,45,13.10
2004,04,05,15,46,12.80
2004,04,05,15,47,12.90
2004,04,05,15,48,13.00
2004,04,05,15,49,13.00
2004,04,05,15,50,13.10
2004,04,05,15,51,13.20
2004,04,05,15,52,13.30
2004,04,05,15,53,13.40
2004,04,05,15,54,13.50
2004,04,05,15,55,13.50
2004,04,05,15,56,13.60
2004,04,05,15,57,13.60
2004,04,05,15,58,13.50
2004,04,05,15,59,13.50
2004,04,05,16,00,13.70
2004,04,05,16,01,13.50
2004,04,05,16,02,13.30
2004,04,05,16,03,13.30
2004,04,05,16,04,13.20
2004,04,05,16,05,13.30
2004,04,05,16,06,13.40
2004,04,05,16,07,13.50
2004,04,05,16,08,13.70
2004,04,05,16,09,13.90
2004,04,05,16,10,13.90
2004,04,05,16,11,13.90
2004,04,05,16,12,14.00
2004,04,05,16,13,14.10
2004,04,05,16,14,14.20
2004,04,05,16,15,14.30
2004,04,05,16,16,14.50
2004,04,05,16,17,14.50
2004,04,05,16,18,14.40
2004,04,05,16,19,14.50
2004,04,05,16,20,14.40
2004,04,05,16,21,14.40
2004,04,05,16,22,14.50
2004,04,05,16,23,14.50
2004,04,05,16,24,14.60
2004,04,05,16,25,14.60
2004,04,05,16,26,14.50
2004,04,05,16,27,14.60
2004,04,05,16,28,14.50
2004,04,05,16,29,14.40
2004,04,05,16,30,14.40
2004,04,05,16,31,14.30
2004,04,05,16,32,14.20
2004,04,05,16,33,14.20
2004,04,05,16,34,14.30
2004,04,05,16,35,14.20
2004,04,05,16,36,14.10
2004,04,05,16,37,14.20
2004,04,05,16,38,14.40
2004,04,05,16,39,14.50
2004,04,05,16,40,14.60
2004,04,05,16,41,14.80
2004,04,05,16,42,14.70
2004,04,05,16,43,14.60
2004,04,05,16,44,14.60
2004,04,05,16,45,14.60
2004,04,05,16,46,14.30
2004,04,05,16,47,14.40
2004,04,05,16,48,14.50
2004,04,05,16,49,14.60
2004,04,05,16,50,14.60
2004,04,05,16,51,14.70
2004,04,05,16,52,14.90
2004,04,05,16,53,14.90
2004,04,05,16,54,14.90
2004,04,05,16,55,14.80
2004,04,05,16,56,14.90
2004,04,05,16,57,14.80
2004,04,05,16,58,14.80
2004,04,05,16,59,14.90
2004,04,05,17,00,14.90
2004,04,05,17,01,15.10
2004,04,05,17,02,15.10
2004,04,05,17,03,15.00
2004,04,05,17,04,15.00
2004,04,05,17,05,14.90
2004,04,05,17,06,15.00
2004,04,05,17,07,15.10
2004,04,05,17,08,15.00
2004,04,05,17,09,15.00
2004,04,05,17,10,15.10
2004,04,05,17,11,15.20
2004,04,05,17,12,15.30
2004,04,05,17,13,15.20
2004,04,05,17,14,15.10
2004,04,05,17,15,15.20
2004,04,05,17,16,15.30
2004,04,05,17,17,15.10
2004,04,05,17,18,15.20
2004,04,05,17,19,15.10
2004,04,05,17,20,15.10
2004,04,05,17,21,15.10
2004,04,05,17,22,15.00
2004,04,05,17,23,14.90
2004,04,05,17,24,14.90
2004,04,05,17,25,15.00
2004,04,05,17,26,15.00
2004,04,05,17,27,15.00
2004,04,05,17,28,14.90
2004,04,05,17,29,14.90
2004,04,05,17,30,15.00
2004,04,05,17,31,15.00
2004,04,05,17,32,15.10
2004,04,05,17,33,15.10
2004,04,05,17,34,15.10
2004,04,05,17,35,15.20
2004,04,05,17,36,15.10
2004,04,05,17,37,15.10
2004,04,05,17,38,15.10
2004,04,05,17,39,15.20